Location: Cuiry
(49.3858°N, 3.7708°E)
Time: 00:15:06
(UTC+00:00)

BREEZE-M DEB (TANK) - Pass Details

Date: 12 January 2026
Orbit: 273 x 16125 km, 49.5° (Epoch: 17 February)

Event Time Altitude Azimuth Distance (km) Brightness Sun altitude
Rises 18:06:29 0° 229° (SW) 2,198 6.5 -18.3°
Reaches altitude 10° 18:07:48 10° 222° (SW) 1,585 5.4 -18.5°
Maximum altitude 18:10:47 51° 144° (SE) 942 3.3 -19.0°
Enters shadow 18:13:26 31° 86° (E) 1,846 4.4 -19.4°
